Hourly Data Report for October 21, 2013

All times are specified in Local Standard Time (LST). Add 1 hour to adjust for Daylight Saving Time where and when it is observed.

SAINT JOHN A
NEW BRUNSWICK

45°18'58.000" N
65°53'24.000" W
108.80 m
8104901
71609
YSJ

Download Data

Hourly Data (October 2013)
Hourly Data Report for October 21, 2013
Temp Definition
°C
Dew Point Temp Definition
°C
Rel Hum Definition
%
Wind Dir Definition
10's deg

Wind Spd Definition
km/h
Visibility Definition
km
Stn Press Definition
kPa
Hmdx Definition


Wind Chill Definition


Weather Definition


TIME
00:00 Legend Double Dagger 5.5 1.6 76 25 10 24.1 99.69     LegendNANA
01:00 Legend Double Dagger 4.4 1.1 79 23 10 24.1 99.72     LegendNANA
02:00 Legend Double Dagger 4.5 1.2 79 24 5 24.1 99.77     Clear
03:00 Legend Double Dagger 4.8 1.5 79 26 9 24.1 99.79     LegendNANA
04:00 Legend Double Dagger 4.9 1.4 78 27 14 24.1 99.82     LegendNANA
05:00 Legend Double Dagger 4.6 0.9 77 27 15 24.1 99.87     Clear
06:00 Legend Double Dagger 3.9 0.6 79 27 12 24.1 99.95     LegendNANA
07:00 Legend Double Dagger 3.8 0.7 80 27 13 24.1 100.02     LegendNANA
08:00 Legend Double Dagger 4.8 1.1 77 29 6 24.1 100.09     Mainly Clear
09:00 Legend Double Dagger 6.9 1.2 67 29 21 24.1 100.13     LegendNANA
10:00 Legend Double Dagger 8.6 1.5 61 28 18 24.1 100.13     LegendNANA
11:00 Legend Double Dagger 9.9 1.3 55 30 26 24.1 100.15     Mostly Cloudy
12:00 Legend Double Dagger 10.7 1.6 53 30 19 24.1 100.13     LegendNANA
13:00 Legend Double Dagger 11.3 1.6 51 27 20 24.1 100.14     LegendNANA
14:00 Legend Double Dagger 12.3 2.2 50 28 19 24.1 100.15     Mainly Clear
15:00 Legend Double Dagger 12.4 2.3 50 29 22 24.1 100.15     LegendNANA
16:00 Legend Double Dagger 12.5 2.7 51 28 15 24.1 100.18     LegendNANA
17:00 Legend Double Dagger 11.2 2.3 54 31 11 24.1 100.25     Mainly Clear
18:00 Legend Double Dagger 6.1 3.1 81 19 2 24.1 100.32     LegendNANA
19:00 Legend Double Dagger 2.5 1.9 96 8 1 24.1 100.34     LegendNANA
20:00 Legend Double Dagger 1.6 1.2 97 7 2 24.1 100.36     Mainly Clear
21:00 Legend Double Dagger 0.4 0.3 99 8 1 24.1 100.40     LegendNANA
22:00 Legend Double Dagger -0.3 -0.6 98 2 3 24.1 100.42   -1 LegendNANA
23:00 Legend Double Dagger 0.9 0.6 98 2 5 24.1 100.43     Mainly Clear

Notes on Data Quality.

Legend

  • E = Estimated
  • M = Missing
  • NA = Not Available
  • ‡ = Partner data that is not subject to review by the National Climate Archives
Date modified: